Weather History for PAPB - July, 2013

Change the Weather History Date:

Monday, July 8, 2013

  Actual Average Record
Temperature  
Mean Temperature 42 °F -  
Max Temperature 45 °F 47 °F 55 °F (2005)
Min Temperature 41 °F 41 °F 30 °F (2012)
Degree Days  
Heating Degree Days 22    
Moisture  
Dew Point 43 °F    
Average Humidity 100    
Maximum Humidity 100    
Minimum Humidity 100    
Precipitation  
Precipitation 0.10 in - - ()
Sea Level Pressure  
Sea Level Pressure 29.97 in    
Wind  
Wind Speed 8 mph (WSW)    
Max Wind Speed 15 mph    
Max Gust Speed -    
Visibility 2 miles    
Events Fog , Rain    
Averages and records for this station are not official NWS values.
T = Trace of Precipitation, MM = Missing Value Source: NWS Daily Summary

Daily Weather History Graph

Daily Weather History Graph

Search for Another Location

Airport or City:

Trip Planner

Search our weather history database for the weather conditions in past years. The results will help you decide how hot, cold, wet, or windy it might be!

Date:

Astronomy

Jul. 08, 2013 Rise Set
Actual Time 6:40 AM AKDT 12:06 AM AKDT
Civil Twilight 5:39 AM AKDT 1:07 AM AKDT
Nautical Twilight 3:56 AM AKDT 2:51 AM AKDT
Astronomical Twilight Sun does not rise Sun does not rise
Moon 7:45 AM AKDT (7/8) 11:47 PM AKDT (7/8)
Length of Visible Light 19h 27m
Length of Day
17h 25m
New Moon, 0% of the Moon is Illuminated
Jul 8
New Moon
Jul 15
First Quarter
Jul 22
Full
Jul 29
Last Quarter
Aug 6
New

Hourly Weather History & Observations

Time (AKDT) Temp. Windchill Dew Point Humidity Pressure Visibility Wind Dir Wind Speed Gust Speed Precip Events Conditions
12:53 AM 41.0 °F 35.2 °F 41.0 °F 100% 29.91 in 0.2 mi SSW 9.2 mph - N/A Fog Fog
1:32 AM 41.0 °F 34.3 °F 41.0 °F 100% 29.93 in 1.0 mi SSW 11.5 mph - N/A   Mist
1:53 AM 41.0 °F 34.7 °F 41.0 °F 100% 29.88 in 0.5 mi South 10.4 mph - N/A Fog Fog
2:53 AM 42.1 °F 36.1 °F 42.1 °F 100% 29.87 in 0.2 mi SSW 10.4 mph - N/A Fog Fog
3:53 AM 41.0 °F 33.5 °F 41.0 °F 100% 29.86 in 0.2 mi SSW 13.8 mph - N/A Fog Fog
4:53 AM 42.1 °F 34.5 °F 42.1 °F 100% 29.86 in 0.2 mi SW 15.0 mph - N/A Fog Fog
5:53 AM 42.1 °F 35.2 °F 42.1 °F 100% 29.84 in 0.2 mi SW 12.7 mph - N/A Fog Fog
6:53 AM 41.0 °F 35.2 °F 41.0 °F 100% 29.85 in 0.2 mi SW 9.2 mph - N/A Fog Fog
7:53 AM 41.0 °F 34.3 °F 41.0 °F 100% 29.84 in 0.2 mi SW 11.5 mph - N/A Fog Fog
8:53 AM 41.0 °F 35.8 °F 41.0 °F 100% 29.86 in 0.2 mi SW 8.1 mph - N/A Fog Fog
9:53 AM 42.1 °F 37.7 °F 42.1 °F 100% 29.87 in 0.2 mi SSW 6.9 mph - 0.01 in Fog , Rain Light Rain
10:53 AM 42.1 °F 39.2 °F 42.1 °F 100% 29.88 in 0.2 mi SSW 4.6 mph - 0.00 in Fog Fog
11:53 AM 42.1 °F - 42.1 °F 100% 29.89 in 0.2 mi Calm Calm - 0.00 in Fog , Rain Light Rain
12:53 PM 43.0 °F 38.8 °F 43.0 °F 100% 29.89 in 0.2 mi West 6.9 mph - 0.00 in Fog Fog
1:53 PM 43.0 °F 40.3 °F 43.0 °F 100% 29.91 in 0.2 mi WSW 4.6 mph - 0.01 in Fog , Rain Light Rain
2:53 PM 43.0 °F 40.3 °F 43.0 °F 100% 29.93 in 1.0 mi Variable 4.6 mph - 0.01 in   Mist
3:00 PM 44.6 °F 40.2 °F 44.6 °F 100% 29.96 in 2.0 mi West 8.1 mph - N/A   Overcast
3:53 PM 44.1 °F 39.5 °F 44.1 °F 100% 29.94 in 1.8 mi West 8.1 mph - N/A   Overcast
4:21 PM 44.6 °F 39.7 °F 44.6 °F 100% 29.98 in 1.0 mi West 9.2 mph - N/A   Overcast
4:35 PM 44.6 °F 39.2 °F 44.6 °F 100% 29.98 in 0.8 mi West 10.4 mph - 0.01 in   Overcast
4:53 PM 44.1 °F 39.0 °F 44.1 °F 100% 29.95 in 0.8 mi West 9.2 mph - 0.01 in   Mist
5:00 PM 44.6 °F 39.7 °F 44.6 °F 100% 29.98 in 1.2 mi West 9.2 mph - N/A   Overcast
5:24 PM 44.6 °F 39.7 °F 44.6 °F 100% 29.99 in 2.5 mi West 9.2 mph - N/A   Overcast
5:45 PM 44.6 °F 40.2 °F 44.6 °F 100% 30.00 in 3.0 mi West 8.1 mph - N/A   Overcast
5:53 PM 44.1 °F 39.5 °F 44.1 °F 100% 29.96 in 3.0 mi West 8.1 mph - N/A   Overcast
6:53 PM 44.1 °F 41.5 °F 44.1 °F 100% 29.99 in 4.0 mi WSW 4.6 mph - N/A   Overcast
7:53 PM 44.1 °F 40.1 °F 44.1 °F 100% 30.00 in 4.0 mi WSW 6.9 mph - 0.01 in Rain Light Rain
8:30 PM 44.6 °F 40.2 °F 44.6 °F 100% 30.04 in 4.0 mi West 8.1 mph - 0.01 in Rain Light Rain
8:53 PM 44.1 °F 39.5 °F 44.1 °F 100% 30.01 in 3.0 mi West 8.1 mph - 0.01 in Rain Light Rain
9:28 PM 44.6 °F 42.2 °F 44.6 °F 100% 30.05 in 2.5 mi SSW 4.6 mph - 0.01 in Rain Light Rain
9:35 PM 42.8 °F 40.1 °F 42.8 °F 100% 30.05 in 2.5 mi WSW 4.6 mph - 0.01 in Rain Light Rain
9:42 PM 44.6 °F 42.2 °F 44.6 °F 100% 30.05 in 2.5 mi West 4.6 mph - 0.02 in Rain Light Rain
9:53 PM 44.1 °F 41.5 °F 44.1 °F 100% 30.02 in 2.5 mi West 4.6 mph - 0.02 in Rain Light Rain
10:09 PM 44.6 °F 43.1 °F 44.6 °F 100% 30.06 in 1.8 mi West 3.5 mph - 0.00 in Rain Light Rain
10:20 PM 42.8 °F - 42.8 °F 100% 30.06 in 1.5 mi Calm Calm - 0.00 in   Overcast
10:29 PM 42.8 °F - 42.8 °F 100% 30.06 in 1.5 mi Calm Calm - 0.00 in   Overcast
10:50 PM 42.8 °F - 42.8 °F 100% 30.07 in 1.0 mi Calm Calm - 0.01 in Rain Light Rain
10:53 PM 43.0 °F - 43.0 °F 100% 30.04 in 1.0 mi Calm Calm - 0.01 in Rain Light Rain
11:02 PM 42.8 °F - 42.8 °F 100% 30.07 in 0.8 mi Calm Calm - 0.00 in Rain Light Rain
11:12 PM 42.8 °F - 42.8 °F 100% 30.07 in 1.0 mi Calm Calm - 0.00 in Rain Light Rain
11:22 PM 42.8 °F - 42.8 °F 100% 30.07 in 1.2 mi Calm Calm - 0.00 in Rain Light Rain
11:33 PM 42.8 °F - 42.8 °F 100% 30.08 in 1.8 mi Calm Calm - 0.01 in Rain Light Rain
11:38 PM 44.6 °F - 44.6 °F 100% 30.08 in 2.0 mi Calm Calm - 0.01 in Rain Light Rain
11:50 PM 44.6 °F - 44.6 °F 100% 30.08 in 3.0 mi Calm Calm - 0.01 in Rain Light Rain
11:51 PM 44.1 °F - 44.1 °F 100% 30.05 in 4.0 mi Calm Calm - 0.01 in Rain Light Rain